Cosmos 1766 Rocket - Orbit

View from above orbital plane
View from above orbital plane
View from above satellite
View from above satellite

Ground track
Ground track

The orbit data is extracted from the following two-line orbital elements,

1 16882U 86055B   13168.11822713  .00000162  00000-0  17265-4 0  1641
2 16882 082.5209 160.5341 0020726 175.0281 302.3645 14.82198556451376
Epoch (UTC): 17 June 2013 02:50:14
Eccentricity: 0.0020726
inclination: 82.5209°
perigee height: 608 km
apogee height: 637 km
right ascension of ascending node: 160.5341°
argument of perigee: 175.0281°
revolutions per day: 14.82198556
mean anomaly at epoch: 302.3645°
orbit number at epoch: 45137

The dashed part of the orbit path shows where the satellite is in the earth's shadow,  

Developed and maintained by Chris Peat, Heavens-Above GmbH. Please read the updated FAQ before sending e-mail. Imprint. DLR